FALCON 9 R/B, 54049

Orbit data source: Space-Track

FALCON 9 R/B, 54049 is space debris in HEO originally from a launch on Sat, 15 Oct 2022 UTC launched from the Air Force Eastern Test Range (AFETR). Debris objects in space refer to the collection of defunct objects orbiting the Earth. Examples of debris include non-operational satellites, rocket bodies, and fragments generated from explosions, collisions, or faulty payload assembly.

Loading next visibility...
Identifier
54049, 2022-134B
Orbit
HEO
Country
Flag of USUS
Related business
Manufacturer
SpaceX
Mission
Spacecraft
Bus & Motor
F9ST2, Unknown motor
Mass
~4,000 kg wet, ~4,000 kg dry
Launch date (UTC)
2022-10-15 (3 years ago)
Launch vehicle
Unknown
Launch site
Air Force Eastern Test Range (AFETR)
Object type
Payload
Rocket body
Debris
Shape & HBR
Cyl, 7.8 m
Radar Cross Section
39.980 m², Large (>1 m²)

Expand to show TLE details & history
Last TLE update: 3 days ago

TLE from 3 days ago
0 FALCON 9 R/B
1 54049U 22134B   26092.47741199 -.00000092  00000-0  36088-3 0  9995
2 54049  27.5573  42.6357 8000409 247.0762  16.7837  1.35650736 17083
Epoch: 2026-04-02T11:27Z
TLE epoch observation values (Epoch: 2026-04-02T11:27:28.395Z)
Latitude
0.00084°
Longitude
39.75194°
Altitude
11,741.274 km
Speed
5.695 km/s
True Right ascension
02h 49m 46s
True Declination
0° 00' 03"
Sunlit
Object was in daylight at epoch
Visualization orbit readout
Latitude
Unknown
Longitude
Unknown
Altitude
Unknown
Speed
Unknown
Apparent Right ascension
Unknown
Apparent Declination
Unknown
Sunlit
N/A
Visualization observer readout
Local Sidereal Time
16:07:58
Azimuth
Unknown
Elevation
Unknown
Doppler factor
Unknown
Orbital elements
Apogee altitude
55,678.322 km
Perigee altitude
515.458 km
Semi-major axis
34,475.027 km
Eccentricity
0.80004
Inclination
27.5573°
RAAN
42.6357°
Arg. of periapsis
247.0762°
True anomaly
113.337°
Mean anomaly
16.7837°
Eccentric anomaly
53.75055°
Mean motion
0.33907 °/min
Orbital period
1,061.74 mins
BSTAR
0.00036088
Loading maneuver chart data...
Computing Atmospheric mass density...
Loading historical data...
Loading historical data...
Loading historical data...
Loading historical data...
Loading historical data...
Loading historical data...
Loading historical data...
Other satellites on launch #134 in the year 2022 (2022-10-15 UTC)

Documentation

Showing up to 5 results
|